Content
SEND FEEDBACK

Daily
Averages
Monthly
Summary
United States of America

SILVERPEAK, NEVADA


Home > North America > United States > Nevada
Elevation: 12271 feet     Latitude: 37 35N     Longitude: 118 14W

WEATHER
 
SELECT A DAY
Number of Records: 176,056;   Date Range: 1/1/95 - 12/27/14
 
SHARE

PRINT THIS DATA

[ ← Previous Day ]
WEATHER ALMANAC - JANUARY 31, 2013
[ Next Day → ]
[ °C ]   °F
Weather ElementAverageHighLow
Temperature43.3 °F64.9 °F (2:56 pm)25 °F (4:56 am)
Dewpoint16.5 °F23 °F (9:56 am)10.9 °F (5:56 pm)
Humidity39.9 %69 % (4:56 am)14 % (3:56 pm)
Barometer30.25 in30.34 in (7:56 am)30.14 in (3:56 pm)
Wind Speed4.6 mph8.1 mph (1:56 am)
Weather ElementAverage
Visibility10 mi
Wind DirectionSSW (214.3 °)

Weather ElementTotal
Precipitation---
Heating Degree Days20.1 (Base 65)
Averaged from 23 records on January 31, 2013
WEATHER CONDITIONS BREAKOUT
WIND DIRECTION BREAKOUT
WEATHER BY HOUR - JANUARY 31, 2013
[ °C ]   °F
Local TimeTemperatureDewpointHumidityBarometerVisibilityWind DirectionWind SpeedGust SpeedPrecipitationEventsConditions
1:56 AM35.1 °F19.9 °F54 %30.29 in10.0 miWest (280°)8.1 mphClear
2:56 AM30.9 °F19.0 °F61 %30.29 in10.0 miNNW (340°)8.1 mphClear
3:56 AM28.0 °F18.0 °F66 %30.30 in10.0 miWNW (290°)8.1 mphClear
4:56 AM25.0 °F16.0 °F69 %30.31 in10.0 miNNW (340°)4.6 mphClear
5:56 AM30.0 °F19.0 °F64 %30.32 in10.0 miWNW (290°)6.9 mphClear
6:56 AM26.1 °F17.1 °F69 %30.33 in10.0 miNNW (330°)6.9 mphClear
7:56 AM34.0 °F19.9 °F56 %30.34 in10.0 miWest (270°)5.8 mphClear
8:56 AM42.1 °F21.9 °F45 %30.32 in10.0 miNorth (350°)3.5 mphClear
9:56 AM53.1 °F23.0 °F31 %30.29 in10.0 miNNW (340°)8.1 mphClear
10:56 AM57.0 °F21.9 °F26 %30.27 in10.0 miWNW (300°)4.6 mphClear
11:56 AM62.1 °F19.9 °F20 %30.23 in10.0 miNorth (350°)5.8 mphClear
12:56 PM62.1 °F17.1 °F18 %30.20 in10.0 miCalmClear
1:56 PM64.0 °F17.1 °F16 %30.16 in10.0 miWest (280°)5.8 mphClear
2:56 PM64.9 °F16.0 °F15 %30.15 in10.0 miCalmClear
3:56 PM64.9 °F14.0 °F14 %30.14 in10.0 miCalmClear
4:56 PM60.1 °F14.0 °F16 %30.16 in10.0 miSSW (200°)5.8 mphClear
5:56 PM54.0 °F10.9 °F18 %30.18 in10.0 miCalmClear
6:56 PM44.1 °F12.0 °F27 %30.23 in10.0 miCalmClear
7:56 PM39.9 °F12.9 °F33 %30.23 in10.0 miCalmClear
8:56 PM32.0 °F12.0 °F44 %30.24 in10.0 miNNE (20°)5.8 mphClear
9:56 PM30.9 °F12.9 °F47 %30.23 in10.0 miNW (310°)5.8 mphClear
10:56 PM28.0 °F12.9 °F53 %30.23 in10.0 miNW (310°)6.9 mphClear
11:56 PM27.0 °F12.9 °F56 %30.23 in10.0 miNNW (330°)4.6 mphClear
Hourly data recorded from KBIH, located miles away from Silverpeak, Nevada







STORIES FROM OUR PARTNERS